FW1874 Weather Reports


Display with metric or nautical units.
time (UTC)temp
F
wind
direction
speed
MPH
gust
MPH
rain 1hr
in
rain 24hr
in
rain mn
in
humidity
%
barometer
mb
20181022103022 38 330 0.0 1.0 0.00 0.00 0.00 90 1020.6
20181022101518 38 330 0.0 1.0 0.00 0.00 0.00 89 1020.6
20181022100006 38 330 0.0 0.0 0.00 0.00 0.00 90 1020.6
20181022094505 38 330 0.0 1.0 0.00 0.00 0.00 90 1021.0
20181022093016 38 330 0.0 0.0 0.00 0.00 0.00 89 1021.0
20181022091517 38 330 0.0 2.0 0.00 0.00 0.00 89 1021.0
20181022090005 38 330 0.0 1.0 0.00 0.00 0.00 89 1021.3
20181022084517 38 330 0.0 0.0 0.00 0.00 0.00 89 1021.3
20181022083009 38 330 0.0 0.0 0.00 0.00 0.00 88 1021.3
20181022081505 37 330 0.0 0.0 0.00 0.00 0.00 87 1021.3
20181022080010 37 330 0.0 0.0 0.00 0.00 0.00 87 1021.6
20181022074520 37 330 0.0 0.0 0.00 0.00 0.00 87 1021.6
20181022073013 36 330 0.0 0.0 0.00 0.00 0.00 87 1021.6
20181022071518 36 330 0.0 0.0 0.00 0.00 0.00 86 1021.6
20181022070006 36 330 0.0 0.0 0.00 0.00 0.00 85 1021.6
20181022064521 37 330 0.0 0.0 0.00 0.00 0.00 84 1022.0
20181022063006 37 330 0.0 0.0 0.00 0.00 0.00 84 1022.0
20181022061518 37 330 0.0 0.0 0.00 0.00 0.00 83 1022.0
20181022060010 37 330 0.0 0.0 0.00 0.00 0.00 83 1022.0
20181022054520 37 330 0.0 0.0 0.00 0.00 0.00 82 1022.0
20181022053006 37 330 0.0 0.0 0.00 0.00 0.00 82 1022.0
20181022051517 37 330 0.0 0.0 0.00 0.00 0.00 82 1022.0
20181022050016 37 330 0.0 0.0 0.00 0.00 0.00 82 1022.0
20181022044505 37 330 0.0 0.0 0.00 0.00 0.00 82 1022.3
20181022043027 37 330 0.0 3.0 0.00 0.00 0.00 81 1022.3
20181022041521 37 330 0.0 1.0 0.00 0.00 0.00 81 1022.3
20181022040008 37 330 0.0 2.0 0.00 0.00 0.00 79 1022.3
20181022034512 37 330 0.0 3.0 0.00 0.00 0.00 80 1022.3
20181022033011 37 330 0.0 3.0 0.00 0.00 0.00 79 1022.7
20181022031505 37 330 0.0 3.0 0.00 0.00 0.00 79 1022.7
20181022030005 37 330 0.0 3.0 0.00 0.00 0.00 79 1022.7
20181022024506 37 330 0.0 2.0 0.00 0.00 0.00 78 1022.3
20181022023024 38 330 0.0 2.0 0.00 0.01 0.00 78 1022.3
20181022021517 38 330 0.0 3.0 0.00 0.02 0.00 78 1022.3
20181022020017 38 330 0.0 2.0 0.00 0.05 0.00 78 1022.0
20181022014517 38 330 0.0 3.0 0.00 0.07 0.00 76 1021.6
20181022013006 38 328 1.0 5.0 0.00 0.08 0.00 77 1021.6
20181022011519 38 311 1.0 7.0 0.00 0.08 0.00 75 1021.6
20181022010007 38 346 1.0 4.0 0.00 0.08 0.00 77 1021.6
20181022004518 38 289 1.0 4.0 0.00 0.08 0.00 76 1021.6
20181022003021 39 320 1.0 9.0 0.00 0.09 0.00 77 1021.3
20181022002110 39 320 1.0 4.0 0.00 0.09 0.00 77 1021.3
20181021234510 38 322 0.0 4.0 0.00 0.09 0.00 80 1021.3
20181021233019 38 322 0.0 0.0 0.00 0.09 0.00 80 1021.0
20181021231519 38 322 0.0 0.0 0.00 0.09 0.00 79 1021.0
20181021230019 38 322 0.0 2.0 0.00 0.09 0.00 76 1021.3
20181021224516 39 322 0.0 2.0 0.00 0.09 0.00 75 1021.3
20181021223009 39 322 0.0 4.0 0.00 0.09 0.00 73 1021.3
20181021221516 39 322 0.0 1.0 0.00 0.09 0.00 73 1021.0
20181021220005 39 318 0.0 2.0 0.00 0.09 0.00 71 1021.3
20181021214512 39 315 1.0 5.0 0.00 0.09 0.00 69 1021.0
20181021213005 40 306 1.0 9.0 0.00 0.09 0.00 69 1021.3
20181021211506 40 277 1.0 6.0 0.00 0.09 0.00 68 1021.3
20181021210005 40 316 2.0 9.0 0.00 0.09 0.00 66 1021.3
20181021204514 40 310 3.0 10.0 0.00 0.10 0.00 66 1021.3
20181021203006 40 277 0.0 7.0 0.00 0.11 0.00 68 1021.3
20181021201516 40 313 2.0 7.0 0.00 0.11 0.00 65 1021.3
20181021200015 40 306 2.0 11.0 0.00 0.12 0.00 64 1021.3
20181021194511 40 321 2.0 8.0 0.00 0.12 0.00 64 1021.3
20181021193007 40 306 1.0 11.0 0.00 0.12 0.00 64 1021.3
20181021191506 40 285 1.0 4.0 0.00 0.12 0.00 65 1021.3
20181021190018 40 302 2.0 8.0 0.00 0.13 0.00 65 1021.6
20181021184505 40 315 2.0 11.0 0.00 0.14 0.00 66 1021.6
20181021183015 40 305 2.0 9.0 0.00 0.15 0.00 66 1021.6
20181021181518 40 310 1.0 10.0 0.00 0.18 0.00 67 1022.0
20181021180005 39 311 2.0 11.0 0.00 0.23 0.00 69 1022.0
20181021174507 39 314 2.0 11.0 0.00 0.26 0.00 67 1022.0
20181021173018 39 283 2.0 8.0 0.00 0.26 0.00 71 1022.0
20181021171517 39 307 2.0 8.0 0.00 0.26 0.00 70 1022.0
20181021170256 39 316 2.0 10.0 0.00 0.26 0.00 72 1022.0
20181021164517 39 306 1.0 9.0 0.00 0.27 0.00 76 1022.0
20181021163006 38 314 3.0 14.0 0.00 0.27 0.00 75 1022.3
20181021161506 38 296 1.0 5.0 0.00 0.27 0.00 75 1022.3
20181021160006 38 308 3.0 8.0 0.00 0.27 0.00 73 1022.3
20181021154514 38 307 2.0 7.0 0.00 0.28 0.00 73 1022.3
20181021153007 37 326 2.0 7.0 0.00 0.28 0.00 74 1022.3
20181021151511 37 312 4.0 13.0 0.00 0.28 0.00 71 1022.3
20181021150005 37 296 3.0 12.0 0.00 0.28 0.00 73 1022.3
20181021144505 36 304 2.0 10.0 0.00 0.28 0.00 75 1022.3
20181021143017 36 315 2.0 7.0 0.00 0.28 0.00 75 1022.0
20181021141517 36 312 2.0 9.0 0.00 0.28 0.00 73 1022.0
20181021140009 35 310 3.0 9.0 0.00 0.28 0.00 74 1022.3
20181021134507 34 311 2.0 8.0 0.00 0.28 0.00 75 1022.0
20181021133017 34 315 2.0 6.0 0.00 0.28 0.00 76 1022.0
20181021131506 34 305 2.0 8.0 0.00 0.28 0.00 76 1021.6
20181021130018 34 311 1.0 4.0 0.00 0.28 0.00 76 1021.6
20181021124505 33 297 2.0 8.0 0.00 0.28 0.00 76 1021.3
20181021123011 33 307 1.0 6.0 0.00 0.28 0.00 77 1021.0
20181021121513 33 284 1.0 6.0 0.00 0.28 0.00 77 1020.6
20181021120006 33 324 2.0 8.0 0.00 0.28 0.00 76 1020.3
20181021114508 33 325 2.0 10.0 0.00 0.28 0.00 76 1019.9
20181021113044 33 335 1.0 6.0 0.00 0.28 0.00 78 1019.6
20181021111514 33 311 2.0 10.0 0.00 0.28 0.00 77 1019.3
20181021110051 33 328 1.0 5.0 0.00 0.28 0.00 78 1018.9
20181021104525 33 321 3.0 10.0 0.00 0.28 0.00 77 1018.6